Location: Boursonne
(49.2024°N, 3.0468°E)
Time: 17:39:50
(UTC+00:00)

CSL-04 Rocket - Pass Details

Date: 03 March 2021
Orbit: 805 x 861 km, 98.9° (Epoch: 19 April)

Event Time Altitude Azimuth Distance (km) Brightness Sun altitude
Rises 18:22:27 0° 151° (SSE) 3,426 6.6 -8.7°
Reaches altitude 10° 18:24:51 10° 147° (SSE) 2,491 5.8 -9.0°
Maximum altitude 18:30:16 60° 69° (ENE) 978 3.8 -9.9°
Drops below altitude 10° 18:35:42 10° 351° (N) 2,484 6.3 -10.8°
Sets 18:38:05 0° 348° (NNW) 3,417 7.1 -11.2°
